Location: Deuil
(48.9767°N, 2.3272°E)
Time: 02:03:49
(UTC+00:00)

Cosmos 2360 Rocket - Pass Details

Date: 25 May 2022
Orbit: 832 x 846 km, 71.0° (Epoch: 03 July)

Event Time Altitude Azimuth Distance (km) Brightness Sun altitude
Exits shadow 23:38:42 21° 231° (SW) 1,813 3.6 -19.9°
Maximum altitude 23:42:27 57° 303° (WNW) 988 2.7 -19.9°
Drops below altitude 10° 23:48:01 10° 22° (NNE) 2,469 5.6 -19.9°
Sets 23:50:32 0° 27° (NNE) 3,409 6.5 -19.9°
